Retour au catalogue

STARLINK-32463

ActifCommunicationsVLEO
NORAD 62130·PAYLOAD·🇺🇸 United States

Lancé Nov 27, 2024 depuis Cape Canaveral Space Force Station

Loading…

Prochains Passages (prochaines 24 heures)

TLE

FraisSource: CelesTrak SupGP

Époque: Sep 14, 2026, 21:22 UTC

1 62130C 24222S   26257.89076389 -.00038634  00000+0 -13994-2 0  2576
2 62130  43.0003 147.4513 0001162 266.2854 231.1233 15.27596740    14

Suivez STARLINK-32463 en temps réel avec AllMySat

Download on the App Store